• In Belarus
  • List of Countries
  • For 7 days
  • Water Temperature
  • Satellite Maps
  • Weather Map
  • Weather Widgets
  • user-avatar
    Login

    Hourly Weather Karczowka

    Today, 21 February, Thursday

    Time Temperature Precipitation Wind Pressure Humidity
    00:00 +5°C° 0 mm 2 mps 757 mmHg 85%
    01:00 +5°C° 0 mm 2 mps 757 mmHg 87%
    02:00 +5°C° 0 mm 2 mps 757 mmHg 87%
    03:00 +3°C° 0 mm 3 mps 757 mmHg 87%
    04:00 +3°C° 0 mm 3 mps 757 mmHg 86%
    05:00 +3°C° 0 mm 3 mps 757 mmHg 87%
    06:00 +3°C° 0 mm 3 mps 757 mmHg 87%
    07:00 +3°C° 0 mm 3 mps 757 mmHg 88%
    08:00 +4°C° 0 mm 4 mps 757 mmHg 85%
    09:00 +5°C° 0 mm 4 mps 757 mmHg 82%
    10:00 +5°C° 0 mm 4 mps 757 mmHg 79%
    11:00 +5°C° 0.4 mm 4 mps 757 mmHg 78%
    12:00 +6°C° 0.4 mm 4 mps 756 mmHg 78%
    13:00 +6°C° 0.4 mm 4 mps 756 mmHg 78%
    14:00 +7°C° 0 mm 5 mps 756 mmHg 75%
    15:00 +7°C° 0 mm 5 mps 756 mmHg 72%
    16:00 +8°C° 0 mm 5 mps 756 mmHg 69%
    17:00 +8°C° 0.1 mm 5 mps 756 mmHg 74%
    18:00 +7°C° 0.1 mm 5 mps 756 mmHg 79%
    19:00 +7°C° 0.1 mm 5 mps 756 mmHg 83%
    20:00 +7°C° 0.7 mm 5 mps 756 mmHg 86%
    21:00 +6°C° 0.7 mm 5 mps 756 mmHg 89%
    22:00 +6°C° 0.7 mm 5 mps 755 mmHg 92%
    23:00 +7°C° 0.5 mm 4 mps 756 mmHg 92%

    Tomorrow, 22 February, Friday

    Time Temperature Precipitation Wind Pressure Humidity
    00:00 +7°C° 0.5 mm 4 mps 756 mmHg 92%
    01:00 +7°C° 0.5 mm 4 mps 756 mmHg 92%
    02:00 +7°C° 0.6 mm 4 mps 756 mmHg 91%
    03:00 +7°C° 0.6 mm 5 mps 756 mmHg 91%
    04:00 +7°C° 0.6 mm 5 mps 757 mmHg 90%
    05:00 +6°C° 0.1 mm 5 mps 758 mmHg 88%
    06:00 +5°C° 0.1 mm 5 mps 759 mmHg 86%
    07:00 +3°C° 0.1 mm 5 mps 760 mmHg 84%
    08:00 +2°C° 0 mm 5 mps 761 mmHg 81%
    09:00 +1°C° 0 mm 5 mps 762 mmHg 78%
    10:00 0°C° 0 mm 4 mps 763 mmHg 75%
    11:00 +1°C° 0 mm 4 mps 764 mmHg 70%
    12:00 +1°C° 0 mm 4 mps 764 mmHg 65%
    13:00 +3°C° 0 mm 3 mps 765 mmHg 59%
    14:00 +3°C° 0 mm 3 mps 765 mmHg 56%
    15:00 +3°C° 0 mm 3 mps 766 mmHg 53%
    16:00 +3°C° 0 mm 3 mps 766 mmHg 50%
    17:00 +3°C° 0 mm 2 mps 767 mmHg 54%
    18:00 +1°C° 0 mm 2 mps 767 mmHg 59%
    19:00 -1°C° 0 mm 2 mps 768 mmHg 64%
    20:00 -1°C° 0 mm 2 mps 768 mmHg 64%
    21:00 -2°C° 0 mm 2 mps 769 mmHg 65%
    22:00 -2°C° 0 mm 2 mps 769 mmHg 65%
    23:00 -2°C° 0 mm 2 mps 769 mmHg 64%

    Day after tomorrow, 23 February, Saturday

    Time Temperature Precipitation Wind Pressure Humidity
    00:00 -2°C° 0 mm 2 mps 770 mmHg 62%
    01:00 -3°C° 0 mm 2 mps 770 mmHg 61%
    02:00 -3°C° 0 mm 2 mps 770 mmHg 61%
    03:00 -1°C° 0 mm 1 mps 770 mmHg 60%
    04:00 -1°C° 0 mm 1 mps 770 mmHg 60%
    05:00 -1°C° 0 mm 1 mps 770 mmHg 60%
    06:00 -1°C° 0 mm 1 mps 770 mmHg 60%
    07:00 -1°C° 0 mm 1 mps 770 mmHg 60%
    08:00 -2°C° 0 mm 2 mps 770 mmHg 54%
    09:00 -1°C° 0 mm 2 mps 770 mmHg 48%
    10:00 +1°C° 0 mm 2 mps 770 mmHg 42%
    11:00 +2°C° 0 mm 2 mps 770 mmHg 37%
    12:00 +3°C° 0 mm 2 mps 770 mmHg 33%
    13:00 +4°C° 0 mm 2 mps 770 mmHg 28%
    14:00 +5°C° 0 mm 1 mps 770 mmHg 29%
    15:00 +5°C° 0 mm 1 mps 769 mmHg 30%
    16:00 +5°C° 0 mm 1 mps 769 mmHg 31%
    17:00 +3°C° 0 mm 1 mps 769 mmHg 35%
    18:00 +2°C° 0 mm 1 mps 769 mmHg 39%
    19:00 +1°C° 0 mm 1 mps 769 mmHg 43%
    20:00 +1°C° 0 mm 1 mps 769 mmHg 43%
    21:00 +1°C° 0 mm 1 mps 769 mmHg 43%
    22:00 0°C° 0 mm 1 mps 769 mmHg 43%
    23:00 0°C° 0 mm 1 mps 769 mmHg 43%

    24 February, Sunday

    Time Temperature Precipitation Wind Pressure Humidity
    00:00 0°C° 0 mm 1 mps 769 mmHg 42%
    01:00 0°C° 0 mm 1 mps 768 mmHg 42%
    02:00 0°C° 0 mm 1 mps 768 mmHg 40%
    03:00 0°C° 0 mm 0 mps 768 mmHg 39%
    04:00 0°C° 0 mm 0 mps 767 mmHg 38%
    05:00 0°C° 0 mm 0 mps 767 mmHg 38%
    06:00 +1°C° 0 mm 1 mps 767 mmHg 38%
    07:00 +1°C° 0 mm 1 mps 767 mmHg 38%
    08:00 +2°C° 0 mm 1 mps 767 mmHg 36%
    09:00 +4°C° 0 mm 1 mps 767 mmHg 33%
    10:00 +6°C° 0 mm 1 mps 767 mmHg 31%
    11:00 +6°C° 0 mm 2 mps 767 mmHg 32%
    12:00 +7°C° 0 mm 2 mps 766 mmHg 34%
    13:00 +8°C° 0 mm 2 mps 766 mmHg 35%
    14:00 +8°C° 0 mm 2 mps 766 mmHg 40%
    15:00 +8°C° 0 mm 2 mps 765 mmHg 45%
    16:00 +7°C° 0 mm 2 mps 765 mmHg 50%
    17:00 +6°C° 0 mm 2 mps 765 mmHg 56%
    18:00 +5°C° 0 mm 2 mps 765 mmHg 62%
    19:00 +3°C° 0 mm 2 mps 765 mmHg 68%
    20:00 +2°C° 0 mm 3 mps 765 mmHg 71%
    21:00 +2°C° 0 mm 3 mps 765 mmHg 73%
    22:00 +2°C° 0 mm 3 mps 765 mmHg 76%
    23:00 +1°C° 0 mm 3 mps 765 mmHg 80%

    25 February, Monday

    Time Temperature Precipitation Wind Pressure Humidity
    00:00 +2°C° 0 mm 2 mps 765 mmHg 84%
    01:00 +2°C° 0 mm 2 mps 765 mmHg 88%
    02:00 +2°C° 0 mm 2 mps 765 mmHg 91%
    03:00 +1°C° 0 mm 2 mps 765 mmHg 94%
    04:00 +1°C° 0 mm 2 mps 765 mmHg 97%
    05:00 +2°C° 0 mm 2 mps 765 mmHg 97%
    06:00 +2°C° 0 mm 2 mps 766 mmHg 97%
    07:00 +4°C° 0 mm 1 mps 766 mmHg 97%
    08:00 +4°C° 0 mm 2 mps 767 mmHg 92%
    09:00 +5°C° 0 mm 2 mps 767 mmHg 87%
    10:00 +6°C° 0 mm 2 mps 768 mmHg 82%
    11:00 +7°C° 0 mm 2 mps 768 mmHg 72%
    12:00 +8°C° 0 mm 2 mps 768 mmHg 62%
    13:00 +10°C° 0 mm 1 mps 768 mmHg 53%
    14:00 +10°C° 0 mm 1 mps 768 mmHg 52%
    15:00 +10°C° 0 mm 1 mps 767 mmHg 51%
    16:00 +10°C° 0 mm 1 mps 767 mmHg 50%
    17:00 +9°C° 0 mm 1 mps 767 mmHg 56%
    18:00 +8°C° 0 mm 1 mps 767 mmHg 62%
    19:00 +6°C° 0 mm 1 mps 767 mmHg 67%
    20:00 +6°C° 0 mm 1 mps 767 mmHg 71%
    21:00 +5°C° 0 mm 1 mps 767 mmHg 75%
    22:00 +5°C° 0 mm 1 mps 766 mmHg 80%
    23:00 +3°C° 0 mm 2 mps 766 mmHg 83%

    26 February, Tuesday

    Time Temperature Precipitation Wind Pressure Humidity
    00:00 +3°C° 0 mm 2 mps 766 mmHg 87%
    01:00 +3°C° 0 mm 2 mps 765 mmHg 91%
    02:00 +2°C° 0 mm 2 mps 765 mmHg 92%
    03:00 +2°C° 0 mm 2 mps 764 mmHg 92%
    04:00 +1°C° 0 mm 3 mps 763 mmHg 92%
    05:00 +1°C° 0 mm 3 mps 763 mmHg 91%
    06:00 0°C° 0 mm 3 mps 763 mmHg 90%
    07:00 0°C° 0 mm 3 mps 762 mmHg 89%
    08:00 +2°C° 0 mm 3 mps 762 mmHg 85%
    09:00 +3°C° 0 mm 4 mps 762 mmHg 80%
    10:00 +5°C° 0 mm 4 mps 762 mmHg 76%
    11:00 +6°C° 0 mm 4 mps 761 mmHg 70%
    12:00 +8°C° 0 mm 4 mps 761 mmHg 65%
    13:00 +10°C° 0 mm 4 mps 760 mmHg 59%
    14:00 +11°C° 0 mm 4 mps 760 mmHg 59%
    15:00 +10°C° 0 mm 5 mps 759 mmHg 59%
    16:00 +10°C° 0 mm 5 mps 759 mmHg 59%
    17:00 +10°C° 0 mm 4 mps 759 mmHg 64%
    18:00 +8°C° 0 mm 4 mps 759 mmHg 70%
    19:00 +7°C° 0 mm 4 mps 759 mmHg 75%
    20:00 +6°C° 0 mm 4 mps 759 mmHg 77%
    21:00 +7°C° 0 mm 3 mps 759 mmHg 80%
    22:00 +5°C° 0 mm 3 mps 759 mmHg 83%
    23:00 +5°C° 0 mm 3 mps 759 mmHg 85%
    Show more